Wind_Speed
14 14 14 13 13 13 13 13 13 13 13 14 14 14 14 14 15 15 15 15 16 16 17 18 18 18 19 19 19 20 21 22 22 23 23 23 24 24
16 15 15 15 15 16 16 16 16 16 16 17 17 17 17 17 18 18 19 19 20 20 21 21 22 22 23 23 23 23 23 24 24 25 25 25 25 26
18 19 18 18 19 19 19 19 19 19 19 20 20 20 20 20 21 22 22 23 24 24 24 25 25 26 26 26 26 26 27 27 28 28 28 28 29 29
21 21 21 22 22 22 22 22 22 22 22 22 22 23 23 24 24 25 25 26 27 27 27 27 28 28 29 29 30 30 30 31 31 31 32 32 32 32
22 22 23 23 23 24 24 24 24 24 24 24 25 25 26 27 27 28 28 29 30 30 31 31 32 32 33 33 33 33 34 35 35 36 35 35 36 35
23 23 23 23 24 24 25 26 26 26 27 27 27 28 29 30 30 31 31 32 32 33 33 34 35 36 36 37 37 38 38 39 39 39 39 39 39 39
24 23 24 24 25 25 26 27 28 28 29 29 29 30 31 32 33 34 34 34 35 36 36 37 37 38 39 40 41 41 42 42 43 43 43 43 43 43
25 25 25 26 26 27 27 28 29 30 31 31 32 33 34 35 36 36 37 37 37 38 39 40 41 41 42 43 44 44 45 46 47 46 46 46 46 47
26 27 28 28 28 28 29 30 31 32 33 34 35 36 37 38 38 39 40 40 40 41 42 42 43 44 45 46 47 47 48 48 49 50 50 50 50 50
28 28 29 30 30 31 32 33 34 35 36 37 38 39 40 41 42 42 43 43 44 45 46 46 46 47 48 49 49 50 50 51 51 51 52 52 53 53
29 30 32 32 33 35 36 36 37 39 40 40 41 42 43 44 44 44 45 46 47 48 49 49 49 50 50 51 52 53 54 54 54 54 54 54 55 55
30 31 33 33 34 35 37 38 39 40 42 43 44 44 45 45 46 47 47 48 49 50 51 52 52 53 53 52 54 55 56 56 56 56 56 55 56 56
32 32 33 35 36 38 40 40 41 42 43 44 45 46 47 47 48 49 49 50 51 53 53 55 55 56 56 56 56 57 57 57 57 57 57 56 57 56
32 34 36 37 38 40 41 42 42 43 45 46 46 47 48 49 50 51 52 52 53 55 56 57 58 59 59 59 59 58 58 59 58 58 57 57 58 57
34 35 36 37 39 41 42 43 44 45 46 47 48 49 50 51 53 54 55 57 58 59 60 61 61 61 61 61 60 59 58 57 58 57 57 57 58 58
34 36 37 39 41 42 44 44 45 46 47 48 49 50 52 53 55 56 57 58 59 60 61 61 61 60 60 59 58 58 57 56 56 56 56 57 58 59
36 38 40 41 42 43 44 46 47 48 50 50 52 53 55 56 57 58 58 58 58 58 58 59 58 58 57 56 56 56 55 55 55 55 55 55 56 56
38 39 40 42 43 44 46 48 49 50 51 53 54 55 56 57 57 58 58 58 58 58 58 57 56 54 53 53 53 53 52 52 52 52 52 52 52 52
39 40 42 43 45 46 48 49 50 51 52 54 55 56 56 57 57 57 57 56 56 55 54 53 52 51 50 50 50 51 50 50 50 49 49 50 49 49
40 42 43 45 46 48 49 50 51 52 53 53 54 54 54 54 54 53 53 52 51 50 49 48 48 47 46 46 46 46 47 47 46 46 46 45 45 44
42 43 44 46 47 48 49 49 50 50 51 51 50 50 49 49 48 48 48 47 46 45 44 44 43 43 42 42 42 41 42 43 43 41 41 41 40 39
42 44 45 46 47 47 47 47 47 47 47 46 45 45 45 44 44 44 43 43 42 41 41 40 40 40 39 39 38 38 38 38 38 37 36 35 34 33
43 44 44 44 44 45 45 44 44 43 43 43 42 42 42 42 41 41 41 40 39 39 38 38 37 37 37 37 35 34 33 33 32 32 33 32 31 30
Wind_Direction
242 243 247 250 254 258 262 266 270 274 277 278 280 282 283 284 283 284 284 284 284 284 283 283 284 283 282 283 284 283 281 279 278 278 277 276 277 277
246 248 251 254 257 261 264 267 270 273 275 278 280 281 283 284 284 283 283 284 284 284 284 283 282 282 281 281 280 279 280 279 279 278 278 278 277 276
251 253 255 257 259 262 265 267 270 273 275 278 280 282 283 283 284 284 284 284 284 284 284 283 283 282 281 279 279 279 279 279 278 278 277 277 276 276
254 256 258 259 261 263 265 268 270 273 275 276 278 280 281 282 283 284 284 284 284 284 283 282 282 281 280 279 278 278 278 278 278 277 277 277 276 275
258 258 260 262 264 265 266 268 270 272 273 275 276 277 279 280 282 283 284 284 285 284 283 282 281 281 280 279 279 278 278 278 278 277 277 277 276 275
260 261 264 266 268 268 268 270 271 272 273 275 276 277 278 280 281 282 283 283 284 283 283 282 282 281 280 279 279 278 278 278 278 277 277 277 277 276
262 264 266 268 269 271 271 272 273 274 275 276 276 278 280 282 282 282 282 282 282 282 283 283 282 281 281 280 279 279 278 277 277 276 275 275 275 275
264 265 267 268 270 272 273 274 275 276 276 276 278 280 281 282 283 283 282 282 282 282 283 283 283 282 281 281 280 280 280 279 277 277 276 275 275 275
265 268 269 270 270 271 272 273 275 276 277 277 278 280 281 282 283 283 283 282 281 281 282 282 282 282 282 281 281 280 280 279 278 277 277 276 275 275
267 270 271 270 270 272 274 275 276 277 278 278 278 279 281 283 284 283 283 283 282 282 282 282 282 282 282 281 281 281 280 280 279 278 278 277 276 275
269 270 270 271 273 275 276 277 277 278 279 279 280 280 281 282 283 283 283 283 283 283 282 282 282 283 282 282 281 281 280 280 280 279 279 278 277 276
272 272 272 273 274 275 277 278 280 281 281 280 281 281 282 282 282 282 282 282 283 283 282 283 283 283 282 282 282 282 281 281 280 279 278 278 277 276
274 275 275 276 277 278 280 280 281 282 283 283 283 283 283 283 284 284 284 284 284 284 283 283 284 284 284 283 282 282 281 279 279 279 278 277 277 276
276 276 276 277 279 281 281 282 283 284 285 285 284 284 284 284 284 285 285 285 284 285 285 286 285 285 284 283 283 282 280 279 278 279 278 277 276 275
279 279 278 278 279 281 282 283 284 285 285 284 284 284 284 285 285 286 286 286 286 286 286 286 285 285 285 284 283 282 281 280 279 279 278 277 276 274
277 279 279 280 281 281 283 284 285 285 286 286 286 286 286 287 287 287 288 288 288 288 287 287 286 286 285 284 283 282 281 281 279 278 278 278 277 276
279 279 281 282 284 284 284 285 286 287 288 288 288 288 289 289 289 289 290 289 289 289 289 289 288 287 285 285 284 283 282 282 281 281 280 280 279 278
282 283 284 285 286 286 287 288 289 289 289 289 290 290 290 290 290 290 290 290 290 289 289 288 288 287 287 287 286 285 285 284 284 283 282 281 280 279
284 285 286 287 289 290 290 291 291 291 291 291 291 291 291 291 291 291 292 292 292 291 290 289 288 287 287 287 287 286 286 285 285 284 284 283 282 280
288 289 290 291 292 293 293 293 294 293 293 293 293 293 293 294 294 294 294 294 293 292 291 291 290 289 289 289 288 288 287 287 286 285 285 284 283 281
292 292 293 294 295 296 296 297 297 297 296 296 296 297 297 297 297 297 296 295 294 293 293 293 292 292 291 291 290 290 289 289 289 287 286 285 283 282
295 296 297 297 298 299 300 300 300 300 300 300 300 300 300 300 300 299 298 297 296 295 295 294 294 295 294 294 293 293 292 292 292 291 290 289 288 284
298 299 300 301 302 302 302 303 303 303 303 303 303 302 302 301 301 300 300 299 298 297 296 296 295 296 296 296 295 294 295 296 295 295 294 293 292 289
Height
5880 5880 5881 5881 5882 5882 5883 5883 5884 5883 5883 5882 5882 5882 5881 5880 5880 5879 5878 5878 5877 5876 5875 5874 5873 5873 5872 5871 5870 5869 5868 5868 5867 5866 5866 5865 5865 5864
5876 5877 5878 5878 5879 5879 5880 5880 5880 5880 5880 5879 5879 5878 5878 5877 5876 5875 5875 5874 5873 5872 5871 5870 5869 5868 5867 5866 5865 5864 5863 5862 5861 5860 5860 5859 5858 5858
5872 5873 5874 5875 5875 5875 5876 5876 5876 5876 5876 5875 5875 5874 5873 5872 5871 5870 5869 5868 5867 5866 5865 5864 5863 5862 5861 5860 5858 5857 5856 5855 5855 5854 5853 5852 5851 5851
5868 5869 5869 5870 5870 5871 5871 5871 5871 5871 5871 5870 5869 5868 5868 5867 5866 5865 5863 5862 5861 5860 5858 5857 5856 5855 5853 5852 5851 5850 5849 5848 5847 5846 5845 5844 5843 5843
5863 5863 5864 5865 5865 5865 5865 5865 5865 5865 5865 5864 5863 5862 5861 5860 5859 5858 5857 5855 5854 5852 5851 5849 5848 5846 5845 5844 5843 5842 5841 5839 5838 5837 5836 5835 5834 5833
5857 5858 5858 5859 5859 5859 5859 5859 5859 5858 5858 5857 5856 5855 5854 5853 5852 5851 5849 5847 5846 5844 5842 5841 5839 5838 5836 5835 5833 5832 5831 5829 5828 5827 5826 5825 5824 5823
5851 5852 5852 5853 5852 5852 5852 5852 5852 5851 5850 5850 5849 5848 5846 5845 5844 5842 5841 5839 5837 5835 5833 5831 5829 5828 5826 5824 5823 5821 5819 5818 5816 5815 5814 5813 5812 5811
5845 5846 5846 5846 5846 5845 5845 5845 5844 5843 5843 5842 5841 5839 5838 5836 5834 5833 5831 5830 5828 5825 5823 5821 5818 5816 5814 5812 5811 5809 5807 5805 5804 5802 5801 5800 5799 5798
5839 5839 5839 5839 5839 5838 5838 5837 5836 5835 5834 5833 5832 5830 5828 5826 5825 5823 5821 5819 5817 5814 5812 5810 5807 5804 5802 5799 5797 5795 5794 5792 5790 5788 5787 5786 5784 5783
5832 5832 5832 5831 5831 5830 5830 5828 5827 5826 5825 5823 5822 5820 5818 5816 5814 5812 5809 5807 5805 5802 5799 5798 5795 5792 5789 5786 5783 5781 5779 5777 5775 5773 5772 5770 5769 5768
5824 5824 5824 5823 5823 5822 5821 5819 5818 5816 5814 5812 5811 5808 5806 5804 5802 5799 5797 5794 5792 5789 5786 5784 5781 5778 5776 5772 5769 5766 5764 5761 5759 5758 5755 5754 5752 5751
5816 5816 5815 5814 5813 5812 5811 5809 5807 5805 5803 5801 5799 5797 5794 5791 5789 5786 5783 5780 5778 5775 5772 5769 5766 5763 5761 5758 5754 5750 5747 5745 5743 5741 5738 5736 5734 5733
5808 5807 5806 5805 5804 5802 5801 5799 5796 5794 5792 5789 5787 5784 5781 5778 5775 5772 5769 5766 5763 5760 5757 5754 5751 5747 5744 5742 5738 5734 5730 5728 5725 5723 5721 5719 5717 5715
5799 5798 5797 5795 5793 5792 5789 5787 5785 5783 5780 5777 5774 5771 5768 5765 5762 5758 5755 5751 5748 5744 5740 5737 5734 5730 5727 5723 5721 5717 5713 5710 5707 5705 5703 5701 5698 5696
5789 5788 5786 5784 5783 5781 5778 5776 5773 5771 5768 5765 5761 5758 5755 5751 5747 5743 5740 5736 5732 5727 5723 5719 5716 5712 5708 5704 5702 5698 5695 5692 5688 5686 5684 5682 5680 5678
5780 5778 5776 5774 5772 5769 5767 5764 5761 5758 5755 5751 5747 5744 5740 5736 5732 5728 5724 5719 5714 5709 5705 5701 5697 5693 5689 5685 5681 5678 5675 5673 5670 5667 5665 5663 5660 5658
5770 5769 5766 5764 5761 5758 5755 5752 5749 5745 5741 5737 5733 5729 5725 5720 5716 5711 5707 5702 5697 5692 5687 5683 5678 5674 5671 5667 5663 5660 5657 5654 5651 5649 5647 5645 5642 5639
5761 5758 5755 5752 5749 5746 5742 5739 5735 5731 5726 5722 5718 5713 5708 5704 5699 5694 5689 5684 5680 5675 5671 5666 5662 5658 5654 5649 5646 5642 5640 5637 5634 5631 5628 5627 5625 5621
5750 5746 5743 5740 5736 5733 5729 5725 5720 5716 5711 5707 5702 5697 5692 5687 5682 5677 5672 5667 5662 5658 5653 5649 5645 5642 5638 5635 5630 5625 5623 5620 5617 5614 5611 5609 5607 5605
5738 5735 5731 5728 5724 5719 5715 5710 5706 5701 5696 5691 5686 5681 5676 5670 5665 5660 5655 5650 5646 5641 5637 5633 5629 5626 5622 5619 5616 5611 5606 5603 5601 5599 5596 5593 5591 5588
5726 5723 5719 5715 5710 5706 5701 5696 5691 5686 5681 5675 5670 5665 5660 5655 5650 5645 5640 5636 5631 5627 5623 5619 5615 5611 5608 5605 5601 5598 5593 5589 5586 5584 5581 5579 5577 5574
5714 5710 5706 5702 5697 5692 5687 5682 5677 5672 5666 5661 5656 5651 5647 5642 5637 5632 5627 5623 5619 5614 5610 5606 5603 5599 5595 5592 5588 5585 5581 5577 5574 5571 5568 5566 5563 5562
5702 5698 5693 5688 5683 5679 5674 5669 5664 5659 5654 5649 5644 5639 5634 5629 5625 5620 5615 5611 5607 5602 5599 5595 5591 5587 5583 5580 5576 5573 5570 5567 5564 5561 5558 5555 5553 5551